VK3ABC-13 Weather Reports


Display with metric or nautical units.
time (UTC)temp
F
wind
direction
speed
MPH
gust
MPH
rain 1hr
in
rain 24hr
in
rain mn
in
humidity
%
barometer
mb
20260509200515 54 195 0.0 0.0 0.00 0.02 0.01 91 1026.5
20260509200018 54 190 0.0 0.0 0.00 0.02 0.01 91 1026.5
20260509195516 54 187 0.0 0.0 0.00 0.02 0.01 91 1026.5
20260509195017 54 190 0.0 0.0 0.00 0.02 0.01 91 1026.4
20260509194516 54 191 0.0 0.0 0.00 0.02 0.01 91 1026.4
20260509193516 54 191 0.0 0.0 0.00 0.02 0.01 91 1026.3
20260509191516 55 191 0.0 0.0 0.00 0.02 0.01 91 1026.1
20260509191017 55 193 0.0 0.0 0.00 0.02 0.01 91 1026.1
20260509190516 55 196 0.0 0.0 0.00 0.02 0.01 91 1026.1
20260509190018 55 191 0.0 0.0 0.00 0.02 0.01 91 1026.0
20260509185516 55 198 0.0 0.0 0.00 0.02 0.01 91 1026.0
20260509185017 55 189 0.0 0.0 0.00 0.02 0.01 91 1025.9
20260509184515 55 189 0.0 0.0 0.00 0.02 0.01 91 1025.9
20260509184017 55 191 0.0 0.0 0.00 0.02 0.01 91 1025.8
20260509183515 55 191 0.0 0.0 0.00 0.02 0.01 91 1025.8
20260509183017 55 191 0.0 0.0 0.00 0.02 0.01 91 1025.8
20260509182515 55 190 0.0 0.0 0.00 0.02 0.01 91 1025.8
20260509182017 55 198 0.0 0.0 0.00 0.02 0.01 91 1025.7
20260509181516 55 191 0.0 0.0 0.00 0.02 0.01 91 1025.7
20260509181017 55 194 0.0 0.0 0.00 0.02 0.01 91 1025.7
20260509180017 55 194 0.0 0.0 0.00 0.02 0.01 91 1025.6
20260509175515 55 197 0.0 0.0 0.00 0.02 0.01 91 1025.6
20260509175017 55 188 0.0 0.0 0.00 0.02 0.01 91 1025.6
20260509174515 55 198 0.0 0.0 0.00 0.02 0.01 91 1025.6
20260509173516 55 189 0.0 0.0 0.00 0.02 0.01 91 1025.5
20260509172017 55 188 0.0 0.0 0.00 0.02 0.01 90 1025.6
20260509171515 54 191 0.0 0.0 0.00 0.02 0.01 90 1025.6
20260509171017 54 198 0.0 0.0 0.00 0.02 0.01 90 1025.6
20260509170516 54 191 0.0 0.0 0.00 0.02 0.01 90 1025.6
20260509170018 55 196 0.0 0.0 0.00 0.02 0.01 90 1025.7
20260509165017 55 188 0.0 0.0 0.00 0.02 0.01 90 1025.7
20260509164515 55 196 0.0 0.0 0.00 0.02 0.01 90 1025.7
20260509164017 55 190 0.0 0.0 0.01 0.02 0.01 90 1025.7
20260509163017 55 190 0.0 0.0 0.01 0.02 0.01 90 1025.7
20260509162515 55 190 0.0 0.0 0.01 0.02 0.01 90 1025.7
20260509161516 56 191 0.0 0.0 0.01 0.02 0.01 90 1025.7
20260509161017 56 188 0.0 0.0 0.01 0.02 0.01 90 1025.7
20260509160516 56 190 0.0 0.0 0.01 0.02 0.01 90 1025.8
20260509160018 56 198 0.0 0.0 0.01 0.02 0.01 90 1025.8
20260509155516 56 191 0.0 1.0 0.01 0.02 0.01 90 1025.9
20260509155016 56 195 0.0 3.0 0.01 0.02 0.01 90 1025.9
20260509154516 56 194 1.0 2.0 0.01 0.02 0.01 90 1026.0
20260509154017 56 193 0.0 0.0 0.00 0.01 0.00 90 1025.9
20260509153516 56 200 0.0 0.0 0.00 0.01 0.00 90 1025.9
20260509152515 56 205 0.0 0.0 0.00 0.01 0.00 89 1026.0
20260509152017 56 198 0.0 0.0 0.00 0.01 0.00 89 1025.9
20260509151017 56 198 0.0 0.0 0.00 0.01 0.00 89 1025.9
20260509150017 56 194 0.0 0.0 0.00 0.01 0.00 89 1025.9
20260509144516 56 194 0.0 1.0 0.00 0.01 0.00 89 1025.9
20260509143516 56 194 0.0 0.0 0.00 0.01 0.00 89 1025.9
20260509143017 56 193 0.0 0.0 0.00 0.01 0.00 89 1025.9
20260509142017 56 191 0.0 0.0 0.00 0.01 0.00 89 1025.9
20260509141511 57 197 0.0 0.0 0.00 0.01 0.00 89 1026.0
20260509141012 57 196 0.0 0.0 0.00 0.01 0.00 89 1026.0
20260509140515 57 193 0.0 0.0 0.00 0.01 0.00 89 1025.9
20260509140018 57 194 0.0 0.0 0.00 0.01 0.00 88 1025.9
20260509135516 57 195 0.0 0.0 0.00 0.01 0.01 89 1025.9
20260509135017 57 192 0.0 1.0 0.00 0.01 0.01 89 1025.9
20260509134516 57 197 0.0 1.0 0.00 0.01 0.01 88 1025.9
20260509134017 57 207 0.0 2.0 0.00 0.01 0.01 88 1025.9
20260509133516 57 194 0.0 0.0 0.00 0.01 0.01 88 1026.0
20260509133017 57 138 0.0 0.0 0.00 0.01 0.01 88 1026.0
20260509132516 57 139 0.0 0.0 0.00 0.01 0.01 88 1026.0
20260509131516 57 139 0.0 0.0 0.00 0.01 0.01 88 1026.0
20260509131017 57 133 0.0 0.0 0.00 0.01 0.01 88 1025.9
20260509130515 57 143 0.0 0.0 0.00 0.01 0.01 88 1026.0
20260509130017 57 134 0.0 0.0 0.00 0.01 0.01 88 1025.9
20260509125516 57 134 0.0 0.0 0.00 0.01 0.01 88 1026.0
20260509125017 57 136 0.0 0.0 0.00 0.01 0.01 88 1026.0
20260509124516 57 134 0.0 0.0 0.00 0.01 0.01 88 1025.9
20260509123017 57 138 0.0 0.0 0.00 0.01 0.01 88 1026.0
20260509122515 57 135 0.0 0.0 0.00 0.01 0.01 88 1026.0
20260509122017 57 133 0.0 2.0 0.00 0.01 0.01 88 1026.0
20260509121515 57 135 0.0 1.0 0.00 0.01 0.01 88 1026.0
20260509121017 57 134 0.0 1.0 0.00 0.02 0.01 88 1026.0
20260509120515 56 139 0.0 0.0 0.00 0.02 0.01 88 1026.0
20260509120018 56 134 0.0 0.0 0.00 0.02 0.01 88 1026.1
20260509115515 56 142 0.0 0.0 0.00 0.02 0.01 88 1026.1
20260509114515 56 134 0.0 0.0 0.00 0.02 0.01 88 1026.0
20260509114016 56 133 0.0 0.0 0.00 0.02 0.01 88 1026.0
20260509113515 56 135 0.0 0.0 0.00 0.02 0.01 88 1025.8
20260509112516 56 133 0.0 0.0 0.00 0.02 0.01 88 1025.7
20260509112017 56 146 0.0 0.0 0.00 0.02 0.01 87 1025.7
20260509111515 56 135 0.0 0.0 0.00 0.02 0.01 87 1025.7
20260509111016 56 132 0.0 0.0 0.00 0.02 0.01 87 1025.7
20260509110017 57 135 0.0 0.0 0.00 0.02 0.01 87 1025.7
20260509105515 57 139 0.0 0.0 0.00 0.02 0.01 87 1025.7
20260509105016 56 133 0.0 0.0 0.00 0.02 0.01 87 1025.7
20260509104515 56 139 0.0 0.0 0.00 0.02 0.01 86 1025.6
20260509103515 57 134 0.0 0.0 0.00 0.02 0.01 86 1025.6
20260509102017 57 135 0.0 0.0 0.00 0.02 0.01 86 1025.6
20260509101016 57 138 0.0 0.0 0.00 0.02 0.01 86 1025.6
20260509100515 57 135 0.0 0.0 0.00 0.02 0.01 86 1025.6
20260509100017 57 139 0.0 0.0 0.00 0.02 0.01 86 1025.6
20260509095515 57 135 0.0 0.0 0.00 0.02 0.01 86 1025.5
20260509095016 58 134 0.0 0.0 0.00 0.02 0.01 86 1025.5
20260509094515 58 139 0.0 0.0 0.00 0.02 0.01 86 1025.5
20260509094016 58 138 0.0 0.0 0.00 0.02 0.01 86 1025.5
20260509093515 58 140 0.0 0.0 0.00 0.02 0.01 86 1025.4
20260509093016 58 138 0.0 0.0 0.00 0.02 0.01 86 1025.4
20260509092515 58 134 0.0 0.0 0.00 0.02 0.01 86 1025.4
20260509092016 58 133 0.0 1.0 0.00 0.02 0.01 86 1025.4
20260509091515 58 136 0.0 1.0 0.00 0.02 0.01 86 1025.4
20260509091017 58 134 0.0 1.0 0.00 0.02 0.01 86 1025.3
20260509090515 58 135 1.0 2.0 0.00 0.02 0.01 86 1025.3
20260509090018 58 139 0.0 2.0 0.00 0.02 0.01 86 1025.3
20260509085515 58 135 0.0 2.0 0.00 0.02 0.01 86 1025.2
20260509085016 58 131 0.0 2.0 0.00 0.02 0.01 86 1025.2
20260509084516 58 138 0.0 3.0 0.00 0.02 0.01 85 1025.1
20260509084017 58 131 0.0 1.0 0.00 0.02 0.01 85 1025.0
20260509083516 58 132 0.0 0.0 0.00 0.02 0.01 85 1025.0
20260509083016 58 131 0.0 0.0 0.00 0.02 0.01 85 1025.0
20260509082515 58 136 0.0 0.0 0.00 0.02 0.01 84 1025.0
20260509082017 58 132 0.0 1.0 0.00 0.02 0.01 84 1024.9
20260509081017 59 128 0.0 1.0 0.00 0.02 0.01 84 1024.8
20260509080515 59 131 0.0 2.0 0.00 0.02 0.01 84 1024.7
20260509080018 59 138 1.0 3.0 0.00 0.02 0.01 83 1024.6
20260509075515 59 137 1.0 2.0 0.00 0.02 0.01 83 1024.6
20260509075016 59 139 0.0 0.0 0.00 0.02 0.01 83 1024.5
20260509074515 59 135 0.0 0.0 0.00 0.02 0.01 82 1024.5
20260509074016 59 133 0.0 1.0 0.00 0.02 0.01 82 1024.4
20260509073515 60 135 0.0 2.0 0.00 0.02 0.01 81 1024.3
20260509073017 60 135 0.0 0.0 0.00 0.02 0.01 81 1024.3
20260509072515 60 139 1.0 3.0 0.00 0.02 0.01 81 1024.3
20260509072017 61 138 1.0 5.0 0.00 0.02 0.01 80 1024.2
20260509071515 61 142 0.0 5.0 0.00 0.02 0.01 80 1024.2
20260509071017 61 125 1.0 5.0 0.00 0.02 0.01 80 1024.2
20260509070516 61 123 1.0 3.0 0.00 0.02 0.01 80 1024.2
20260509070018 62 126 0.0 3.0 0.00 0.02 0.01 79 1024.1
20260509065515 62 127 2.0 6.0 0.00 0.02 0.01 79 1024.1
20260509065017 62 132 1.0 5.0 0.00 0.02 0.01 79 1024.1
20260509064516 62 121 0.0 3.0 0.00 0.02 0.01 79 1024.1
20260509064017 62 132 2.0 5.0 0.00 0.02 0.01 78 1024.0
20260509063515 63 138 0.0 5.0 0.00 0.02 0.01 78 1024.0
20260509062516 63 119 2.0 6.0 0.00 0.02 0.01 77 1024.0
20260509062017 63 125 1.0 5.0 0.00 0.02 0.01 76 1023.9
20260509061515 63 139 0.0 3.0 0.00 0.02 0.01 75 1023.9
20260509060515 64 127 0.0 3.0 0.00 0.02 0.01 73 1023.9
20260509055516 64 125 0.0 2.0 0.00 0.02 0.01 72 1023.8
20260509055017 64 128 2.0 5.0 0.00 0.02 0.01 72 1023.8
20260509054515 64 146 0.0 3.0 0.00 0.02 0.01 71 1023.8
20260509054016 65 142 0.0 1.0 0.00 0.02 0.01 70 1023.8
20260509053515 65 151 0.0 1.0 0.00 0.02 0.01 69 1023.7
20260509053017 66 158 0.0 0.0 0.00 0.02 0.01 69 1023.7
20260509052515 66 146 0.0 0.0 0.00 0.02 0.01 68 1023.7
20260509052017 66 149 0.0 1.0 0.00 0.02 0.01 68 1023.7
20260509051515 67 145 0.0 1.0 0.00 0.02 0.01 68 1023.6
20260509051017 67 128 0.0 3.0 0.00 0.02 0.01 67 1023.6
20260509050018 66 138 0.0 1.0 0.00 0.02 0.01 69 1023.7
20260509045515 66 163 0.0 3.0 0.00 0.02 0.01 69 1023.7
20260509045017 66 126 1.0 6.0 0.00 0.02 0.01 70 1023.7
20260509044515 65 130 1.0 6.0 0.00 0.02 0.01 70 1023.6
20260509044017 65 110 0.0 1.0 0.00 0.02 0.01 72 1023.7
20260509043516 65 111 0.0 1.0 0.00 0.02 0.01 71 1023.7
20260509043017 65 113 0.0 2.0 0.00 0.02 0.01 71 1023.8
20260509042516 65 113 0.0 1.0 0.00 0.02 0.01 71 1023.8
20260509042016 65 141 1.0 3.0 0.00 0.02 0.01 71 1023.8
20260509041515 65 114 2.0 5.0 0.00 0.02 0.01 72 1023.8
20260509040515 64 132 2.0 5.0 0.00 0.02 0.01 74 1023.8
20260509040018 64 130 0.0 1.0 0.00 0.02 0.01 74 1023.9
20260509035515 64 134 1.0 5.0 0.00 0.02 0.01 74 1023.9
20260509035017 64 137 1.0 7.0 0.00 0.02 0.01 73 1023.9
20260509034515 64 104 1.0 7.0 0.00 0.02 0.01 73 1023.9
20260509034017 64 126 1.0 7.0 0.00 0.02 0.01 72 1023.9
20260509033515 64 113 1.0 3.0 0.00 0.02 0.01 73 1023.9
20260509033016 64 128 1.0 6.0 0.00 0.02 0.01 73 1023.9
20260509032515 64 128 0.0 6.0 0.00 0.02 0.01 74 1024.0
20260509032017 64 134 0.0 2.0 0.00 0.02 0.01 76 1024.1
20260509031514 64 132 1.0 3.0 0.00 0.02 0.01 77 1024.1
20260509031016 64 162 0.0 3.0 0.00 0.02 0.01 76 1024.1
20260509030017 64 166 0.0 2.0 0.00 0.02 0.01 76 1024.2
20260509025515 64 131 0.0 5.0 0.00 0.02 0.01 77 1024.3
20260509025016 64 130 3.0 7.0 0.00 0.02 0.01 77 1024.3
20260509024516 64 133 3.0 6.0 0.00 0.02 0.01 78 1024.4
20260509024017 64 120 1.0 5.0 0.00 0.02 0.01 77 1024.4
20260509023515 64 144 2.0 5.0 0.00 0.02 0.01 77 1024.5
20260509022515 64 123 2.0 8.0 0.00 0.02 0.01 76 1024.5
20260509022016 64 138 4.0 9.0 0.00 0.02 0.01 77 1024.6
20260509021016 63 123 1.0 6.0 0.00 0.02 0.01 77 1024.7
20260509020515 63 126 3.0 6.0 0.00 0.02 0.01 77 1024.7
20260509020017 63 143 3.0 7.0 0.00 0.02 0.01 78 1024.8
20260509015515 63 155 0.0 2.0 0.00 0.02 0.01 79 1024.9
20260509015016 62 121 2.0 6.0 0.00 0.02 0.01 79 1024.9
20260509014515 62 130 1.0 7.0 0.00 0.02 0.01 79 1025.0
20260509014016 62 125 2.0 6.0 0.00 0.02 0.01 79 1025.0
20260509013515 62 132 2.0 6.0 0.00 0.02 0.01 79 1025.0
20260509013016 63 128 0.0 6.0 0.00 0.02 0.01 79 1025.0
20260509012515 63 146 2.0 5.0 0.00 0.02 0.01 80 1025.1
20260509012016 63 137 3.0 7.0 0.00 0.02 0.01 81 1025.1
20260509011515 62 143 1.0 6.0 0.00 0.02 0.01 82 1025.1
20260509011016 62 131 1.0 6.0 0.00 0.02 0.01 82 1025.1
20260509010515 62 134 1.0 3.0 0.00 0.02 0.01 83 1025.1
20260509010017 62 133 1.0 2.0 0.00 0.02 0.01 83 1025.2
20260509005514 62 138 2.0 7.0 0.00 0.02 0.01 83 1025.2
20260509005016 62 150 3.0 7.0 0.00 0.02 0.01 84 1025.2
20260509004515 61 140 5.0 7.0 0.00 0.02 0.01 85 1025.1
20260509003515 61 169 2.0 6.0 0.00 0.02 0.01 85 1025.1
20260509003016 61 123 4.0 7.0 0.00 0.02 0.01 86 1025.0
20260509002514 61 170 1.0 6.0 0.00 0.02 0.01 87 1025.0
20260509001016 59 137 3.0 6.0 0.00 0.02 0.01 88 1025.0
20260509000515 59 133 3.0 7.0 0.00 0.02 0.01 88 1025.1
20260509000017 59 127 3.0 7.0 0.00 0.02 0.01 89 1025.1
20260508235515 59 131 3.0 7.0 0.00 0.02 0.01 89 1025.0
20260508235016 59 163 1.0 5.0 0.00 0.02 0.01 90 1025.0
20260508234514 59 128 2.0 5.0 0.00 0.02 0.01 90 1025.1
20260508234016 59 139 1.0 5.0 0.00 0.02 0.01 91 1025.1
20260508233515 59 144 1.0 5.0 0.00 0.02 0.01 92 1025.1
20260508233017 59 128 1.0 3.0 0.00 0.02 0.01 92 1025.0
20260508232514 59 130 2.0 5.0 0.00 0.02 0.01 92 1025.0
20260508231515 58 159 1.0 3.0 0.00 0.02 0.01 93 1024.9
20260508231016 58 163 0.0 2.0 0.00 0.02 0.01 93 1024.9
20260508230514 57 178 0.0 1.0 0.00 0.02 0.01 93 1024.9
20260508230017 57 167 0.0 2.0 0.00 0.02 0.01 93 1024.9
20260508225514 57 170 1.0 2.0 0.00 0.02 0.01 93 1024.8
20260508225015 56 158 0.0 2.0 0.00 0.02 0.01 92 1024.8
20260508224515 56 159 0.0 1.0 0.00 0.02 0.01 92 1024.7
20260508224016 55 167 0.0 1.0 0.00 0.02 0.01 92 1024.6
20260508223514 55 158 0.0 0.0 0.00 0.02 0.01 92 1024.6
20260508223016 55 165 0.0 0.0 0.00 0.02 0.01 92 1024.6
20260508222515 54 160 0.0 0.0 0.00 0.02 0.01 92 1024.6
20260508222016 54 156 0.0 0.0 0.00 0.02 0.01 92 1024.5
20260508220514 54 164 0.0 0.0 0.01 0.02 0.01 92 1024.3
20260508220016 53 159 0.0 0.0 0.01 0.02 0.01 92 1024.3
20260508215514 53 169 0.0 0.0 0.01 0.02 0.01 91 1024.3
20260508215016 53 162 0.0 0.0 0.01 0.02 0.01 91 1024.3
20260508214515 53 158 0.0 0.0 0.01 0.02 0.01 91 1024.2
20260508214015 53 159 0.0 0.0 0.01 0.02 0.01 91 1024.2
20260508213515 53 160 0.0 0.0 0.01 0.02 0.01 91 1024.1
20260508213016 53 162 0.0 0.0 0.01 0.02 0.01 91 1024.2
20260508212514 53 158 0.0 0.0 0.01 0.02 0.01 91 1024.2
20260508212015 53 164 0.0 0.0 0.01 0.02 0.01 91 1024.1
20260508211514 53 160 0.0 0.0 0.01 0.03 0.01 91 1024.1
20260508211015 53 158 0.0 0.0 0.01 0.04 0.01 91 1024.1
20260508210514 53 164 0.0 1.0 0.00 0.03 0.00 91 1024.1
20260508210017 53 162 0.0 1.0 0.00 0.03 0.00 91 1024.0
20260508205515 53 163 0.0 1.0 0.00 0.03 0.00 91 1024.0
20260508205016 53 160 0.0 1.0 0.00 0.03 0.00 91 1024.0
20260508204515 53 168 0.0 0.0 0.00 0.03 0.00 91 1024.0
20260508204016 53 157 0.0 0.0 0.00 0.03 0.00 91 1024.0
20260508203016 53 164 0.0 0.0 0.00 0.03 0.00 91 1023.8
20260508202515 53 160 0.0 0.0 0.00 0.03 0.00 91 1023.8
20260508201514 53 159 0.0 0.0 0.00 0.03 0.00 91 1023.7